GSAT0209 (GALILEO 12) (41174 NORAD) Tracking and Keplerian Element Data

This shows tracking and keplerian element data for the satellite.

Feedback or suggestion? Click here.




ElementValue
Catalog41174
NameGSAT0209 (GALILEO 12)
Epoch Orbit1855
Epoch Day344.82681892
Epoch Year2018
RAAN176.7572
Inclination54.9291
Eccentricity0.000317
Argument of Perigee327.1655
Mean Anonmoly32.8561
Mean Motion1.70473566
Decay Rate6.9E-07
L11 41174U 15079A 18344.82681892 .00000069 00000-0 00000+0 0 9997
L22 41174 54.9291 176.7572 0003170 327.1655 32.8561 1.70473566 18557

Live tracking and technical data element details for GSAT0209 (GALILEO 12) (NORAD 41174). GSAT0209 (GALILEO 12) can be tracked NOW for your location showing map with azimuth and elevation plus other details from your city location.

Track the satellite on the map from your city or location and see movement details for azimuth, elevation, latitude, longitude, range, height, and movement on the map or in text.







IsCatalogInMostPopularTable: catalog: 41174, numindb: 121
Update: records affected: 1



GetName: 41174 GSAT0209 (GALILEO 12)

Hit Count: updated at: Thu, 13 Dec 2018 04:09:23 GMT